Regional Weather Roundup
Issued by NWS Wakefield, VA

Home | Current Version | Previous Version | Text Only | Print | Product List | Glossary Off
Versions: 1 2 3 4 5 6 7 8 9 10 11 12 13 14 15 16 17 18 19 20 21 22 23 24 25 26 27 28 29 30 31 32 33 34 35 36 37 38 39 40 41 42 43 44 45 46 47 48 49 50

000
ASUS41 KAKQ 280910
RWRAKQ

REGIONAL WEATHER ROUNDUP
NATIONAL WEATHER SERVICE WAKEFIELD VA
500 AM EDT MON JUL 28 2014

Note: "fair" indicates few or no clouds below 12,000 feet with no
significant weather and/or obstructions to visibility. * = Denotes
station may not report precipitation (e.g., rain,snow,etc.),
thunder or fog.

VAZ042-051-052>054-056-281000-
NORTHERN VIRGINIA

CITY           SKY/WX    TMP DP  RH WIND       PRES   REMARKS
WASH NATIONAL  PTCLDY    74  67  78 SW3       29.59F
DULLES         PTCLDY    66  65  96 S3        29.61R
FORT BELVOIR   CLEAR     71  70  95 CALM      29.61R
QUANTICO       CLEAR     75  71  87 CALM      29.61R
FREDERICKSBRG* CLEAR     76  72  86 SW6       29.60S
STAFFORD*      CLEAR     74  74 100 CALM      29.65R
WARRENTON      CLEAR     69  69 100 CALM      29.61R FOG
CULPEPER*      CLEAR    N/A N/A N/A CALM      29.62R
MANASSAS*      CLEAR     68  66  94 CALM      29.61R
LEESBURG*      PTCLDY    68  68 100 SW7       29.61R
WINCHESTER     PTCLDY    68  64  88 SW3       29.61S
$$

VAZ048-049-060>072-079>083-281000-
CENTRAL AND SOUTH CENTRAL VIRGINIA...AND NORTH CENTRAL NORTH CAROLINA

CITY           SKY/WX    TMP DP  RH WIND       PRES   REMARKS
RICHMOND       MOCLDY    79  71  76 SW13      29.63S
CHESTERFIELD*  CLOUDY    75  63  64 SW7       29.66R
HANOVER        PTCLDY    77  70  79 SW6       29.63F
TAPPAHANNOCK*  PTCLDY    74  70  85 CALM      29.62S
CHARLOTTSVILLE PTCLDY    76  62  62 VRB5      29.64R
ORANGE*        CLEAR     72  64  78 SW5       29.64R
LOUISA*        PTCLDY    72  70  94 SW3       29.63R
FARMVILLE*     CLOUDY    75  64  69 SW9       29.66R
SOUTH HILL*    CLOUDY    81  66  61 W9G22     29.74F
ROANOKE RAPIDS NOT AVBL
RALEIGH        CLOUDY    78  60  53 W9        29.75S
$$

VAZ088>098-281000-
SOUTHEAST VIRGINIA

CITY           SKY/WX    TMP DP  RH WIND       PRES   REMARKS
NORFOLK        CLOUDY    80  71  74 SW14      29.64F
VIRGINIA BEACH CLOUDY    79  72  79 SW14      29.65S
NORFOLK NAVAL  CLOUDY    82  71  69 SW9G18    29.65F
WEST POINT*    MOCLDY    79  73  81 W3        29.63S
NEWPORT NEWS   CLOUDY    83  73  72 W12       29.63F
LANGLEY AFB    CLOUDY    80  74  81 W8        29.62F
FORT EUSTIS    CLOUDY    79  77  93 SW8       29.61F
WILLIAMSBURG*  CLOUDY    81  73  78 SW8       29.64F
FRANKLIN*      CLOUDY    77  72  83 SW6       29.66F
WAKEFIELD      CLOUDY    79  70  74 SW9       29.64F
$$

VAZ020-022-025-037-045-281000-
WESTERN AND SOUTHWEST VIRGINIA

CITY           SKY/WX    TMP DP  RH WIND       PRES   REMARKS
STAUNTON*      PTCLDY    72  61  69 SW5       29.70R
HOT SPRINGS VA FOG       59  58  96 W20G32    29.83F VSB<1/4
LYNCHBURG      PTCLDY    72  65  78 SW6       29.72R
DANVILLE       MOCLDY    74  65  73 SW13      29.75F
MARTINSVILLE   PTCLDY    71  65  82 W7        29.80F
ROANOKE        CLEAR     72  63  73 W13       29.76S
BLACKSBURG     CLEAR     68  66  94 W9          N/A
DUBLIN*        MOCLDY    68  64  84 W12G18    29.86R
MARION*        CLOUDY   N/A N/A N/A W14       29.92F
HILLSVILLE*    CLEAR     64  60  87 W14G20    29.87F
RICHLANDS*     FOG       67  65  94 W9        29.91S VSB 3/4
WISE*          MOCLDY    63  63 100 SW6       29.95S
ABINGDON*      CLOUDY    67  67  99 W7        29.92S
$$

MDZ021>025-VAZ099-100-281000-
SOUTHERN MARYLAND AND THE DELMARVA PENINSULA

CITY           SKY/WX    TMP DP  RH WIND       PRES   REMARKS
PATUXENT RIVER MOCLDY    76  71  85 SW9       29.60R
BAY BRIDGE APT   N/A     77  73  88 W7        29.58F
LEONARDTOWN    MOCLDY    75  70  83 SW7       29.62R
DOVER          MOCLDY    75  75 100 SW7       29.55F
GEORGETOWN     PTCLDY    73  71  93 S8        29.59S
EASTON         CLOUDY    78  76  92 W3        29.62S
CAMBRIDGE      MOCLDY    79  72  78 W5        29.58F
SALISBURY      NOT AVBL
OCEAN CITY     PTCLDY    77  73  87 SW8       29.60S
WALLOPS ISLAND CLEAR     80  73  79 W10       29.62R
ACCOMACK*        N/A     79  72  78 SW8       29.62S
$$

NCZ012>017-030>032-281000-
EASTERN NORTH CAROLINA

CITY           SKY/WX    TMP DP  RH WIND       PRES   REMARKS
ELIZABETH CITY MOCLDY    79  74  84 SW12      29.68F
AHOSKIE*       CLOUDY    76  71  85 CALM      29.70R
EDENTON*       MOCLDY    81  74  81 SW7       29.71S
CURRITUCK*     MOCLDY    80  72  75 SW8       29.68F
KILL DEVIL HLS MOCLDY    81  75  82 SW10G17   29.69F
MANTEO         NOT AVBL
CAPE HATTERAS  PTCLDY    81  80  97 SW15G24   29.75F
GOLDSBORO      CLOUDY    80  75  84 W13       29.74R
WASHINGTON     MOCLDY    79  74  84 SW8       29.73F
GREENVILLE     CLOUDY    79  73  83 W5        29.77R
NEW BERN       MOCLDY    83  74  74 SW9       29.77S
WILMINGTON     PTCLDY    84  73  69 W18G25    29.79R
$$

VAZ048-281000-
ELSEWHERE

CITY           SKY/WX    TMP DP  RH WIND       PRES   REMARKS
HARRISBURG PA  PTCLDY    67  63  87 VRB3      29.55F
BALTIMORE      MOCLDY    71  69  93 SW3       29.58S
ANNAPOLIS      MOCLDY    76  71  85 CALM      29.58S
ANDREWS AFB    CLEAR     74  71  89 SW3       29.59F
WILMINGTON DE  MOCLDY    69  67  93 S5        29.57F
PHILADELPHIA   MOCLDY    70  66  87 S6        29.56F
WILDWOOD NJ*   MOCLDY    73  70  88 S6        29.59S
ATLANTIC CITY  MOCLDY    69  68  96 S5        29.57F
HENDERSON NC   CLOUDY    78  59  52 W10G17    29.72F
GREENSBORO     MOCLDY    70  65  84 W12       29.79F
ROCKY MOUNT    CLOUDY    82  65  56 SW6       29.73R
FAYETTEVILLE   CLOUDY    83  68  60 W14       29.78F
CHARLOTTE      CLOUDY    69  66  90 W3        29.83F
$$

VAZ100-281000-
MARINE

STATION/POSITION TIME  TEMP    WIND        PRES    WAVE   SWELL
                       AIR SEA DIR/SP/G            HT/PER HT/PER
                 (UTC) (F)     (DEG/KT/KT) (MB)    (FT/S) (FT/S)
CAPE MAY NJ      0900   74 77  200/  5/  7 1001.1S
LEWES DE         0900   75 70  220/  5/  7 1001.3F
15NM E FENWICK I 0900   76 74              1001.9F   4/ 5
OCEAN-CITY-INLET 0900   76 71  250/  7/  8 1001.7S
WACHAPREAGUE VA  0900   79 79  230/  6/ 11 1002.9R
THOMAS POINT MD  0900   77 79  270/  7/  8 1002.1F
GOOSES REEF MD   0900   78     270/ 12/ 14 1002.3S
COVE POINT MD    0900   77     280/  9/ 13 1001.9R
SOLOMONS ISLAND  0900      80                N/A
BISHOPS HEAD MD  0900   79 78  250/ 12/ 15 1001.7S
PINEY POINT MD   0900          260/ 10/ 14   N/A
POTOMAC MD       0900   79     250/ 16/ 17 1001.4S
CAMBRIDGE MD     0900   79 80  250/  5/ 10 1001.5R
LEWISETTA VA     0900   78 80  250/ 10/ 13 1002.3R
RAPPAHANNOCK LGT 0900          220/ 17/ 19 1003.5R
STINGRAY PT      0900   80     240/ 16/ 17 1003.6S
YORK RVR RNG VA  0900   80     250/ 18/ 21 1002.5R
YORKTOWN VA      0900   79 80  230/ 12/ 14 1002.7F
JAMESTOWN VA     0900   78     260/ 12/ 16   N/A
DOMINION TERM VA 0900   81     250/ 16/ 19 1003.6F
KIPTOPEKE VA     0900      81  240/ 15/ 18   N/A
CHES BAY BRIDGE  0900   80 78  210/ 16/ 21 1003.1R
CAPE HENRY VA    0900   80     220/ 13/ 19 1002.9R
WILLOUBY STN VA  0900          250/ 19/ 23 1002.4F
S CRANEY ISL VA  0900          220/  8/ 13 1003.6F
CAPE HENRY BUOY  0900      76                N/A     3/ 5
1ST LANDING BUOY 0900   80     230/ 17/ 21 1003.8S
CAPE CHARLES BUO 0900      74                N/A     3/ 4
OFFSHORE WE BUOY 0900      78                N/A     4/ 5
64NM E OF VA BCH 0900   80 78  210/ 19/ 23 1004.3S   4/ 5   2/ 9
DUCK PIER NC     0900   82 65  220/ 16/ 21 1004.5F
44056 DUCK FRF   0900                        N/A     2/10
OREGON INLET NC  0900   82 82  210/ 19/ 21 1006.0S
HATTERAS NC      0900   81 82  220/ 12/ 19 1007.7S
DIAMOND SHLS NC  0900          VRB 21/ 25  1007.2F   5/ 6   2/ 9
CAPE LOOKOUT NC  0800   82     220/ 14/ 21 1008.2F
$$



USA.gov is the U.S. government's official web portal to all federal, state and local government web resources and services.